Weather History for Troy, AL

Change the Weather History Date:

Thursday, January 31, 2013

  Actual Average Record
Temperature  
Mean Temperature 44 °F 47 °F  
Max Temperature 55 °F 59 °F 75 °F (2002)
Min Temperature 33 °F 36 °F 20 °F (2014)
Degree Days  
Heating Degree Days 21 18  
Month to date heating degree days 358 578  
Since 1 July heating degree days 1197 1492  
Moisture  
Dew Point 28 °F    
Average Humidity 60    
Maximum Humidity 92    
Minimum Humidity 27    
Precipitation  
Precipitation 0.00 in 0.16 in 1.56 in (2008)
Month to date precipitation 3.14 4.55  
Year to date precipitation 3.14 4.55  
Snow  
Snow 0.00 in - - ()
Month to date snowfall 0.0  
Since 1 July snowfall 0.0  
Snow Depth 0.00 in    
Sea Level Pressure  
Sea Level Pressure 30.19 in    
Wind  
Wind Speed 6 mph (WNW)    
Max Wind Speed 21 mph    
Max Gust Speed 26 mph    
Visibility 10 miles    
Events      
T = Trace of Precipitation, MM = Missing Value Source: NWS Daily Summary

Daily Weather History Graph

Daily Weather History Graph

Search for Another Location

Airport:

Trip Planner

Search our weather history database for the weather conditions in past years. The results will help you decide how hot, cold, wet, or windy it might be!

Date:

Astronomy

Jan. 31, 2013 Rise Set
Actual Time 6:37 AM CST 5:17 PM CST
Civil Twilight 6:12 AM CST 5:43 PM CST
Nautical Twilight 5:43 AM CST 6:12 PM CST
Astronomical Twilight 5:14 AM CST 6:41 PM CST
Moon 9:56 PM CST (1/31) 8:57 AM CST (1/31)
Length of Visible Light 11h 31m
Length of Day
10h 39m
Waning Gibbous, 79% of the Moon is Illuminated
Jan 31
Waning Gibbous
Feb 3
Last Quarter
Feb 10
New
Feb 17
First Quarter
Feb 25
Full

Hourly Weather History & Observations

Time (CST) Temp. Windchill Dew Point Humidity Pressure Visibility Wind Dir Wind Speed Gust Speed Precip Events Conditions
12:53 AM 41.0 °F 35.8 °F 28.0 °F 60% 30.06 in 10.0 mi WNW 8.1 mph - N/A   Clear
1:53 AM 39.9 °F 33.9 °F 27.0 °F 60% 30.07 in 10.0 mi WNW 9.2 mph - N/A   Clear
2:53 AM 39.0 °F 34.0 °F 28.0 °F 65% 30.08 in 10.0 mi WNW 6.9 mph - N/A   Clear
3:53 AM 39.0 °F 32.3 °F 28.0 °F 65% 30.11 in 10.0 mi WNW 10.4 mph - N/A   Clear
4:53 AM 37.0 °F 31.6 °F 27.0 °F 67% 30.12 in 10.0 mi WNW 6.9 mph - N/A   Clear
5:53 AM 36.0 °F 32.1 °F 27.0 °F 70% 30.13 in 10.0 mi WNW 4.6 mph - N/A   Clear
6:53 AM 34.0 °F 31.0 °F 28.0 °F 79% 30.15 in 10.0 mi WSW 3.5 mph - N/A   Clear
7:53 AM 37.9 °F 34.4 °F 28.0 °F 68% 30.18 in 10.0 mi West 4.6 mph - N/A   Clear
8:53 AM 42.1 °F 35.7 °F 26.1 °F 53% 30.19 in 10.0 mi NW 11.5 mph 23.0 mph N/A   Clear
9:53 AM 45.0 °F 37.9 °F 26.1 °F 48% 30.24 in 10.0 mi WNW 16.1 mph 21.9 mph N/A   Clear
10:53 AM 48.9 °F - 25.0 °F 39% 30.25 in 10.0 mi WNW 12.7 mph 18.4 mph N/A   Clear
11:53 AM 50.0 °F - 25.0 °F 38% 30.23 in 10.0 mi WNW 11.5 mph 17.3 mph N/A   Clear
12:53 PM 52.0 °F - 21.9 °F 31% 30.21 in 10.0 mi NW 18.4 mph 23.0 mph N/A   Clear
1:53 PM 53.1 °F - 21.9 °F 30% 30.20 in 10.0 mi WNW 10.4 mph - N/A   Clear
2:53 PM 55.0 °F - 23.0 °F 29% 30.19 in 10.0 mi NNW 8.1 mph - N/A   Clear
3:53 PM 54.0 °F - 23.0 °F 30% 30.19 in 10.0 mi NW 3.5 mph - N/A   Clear
4:53 PM 51.1 °F - 25.0 °F 36% 30.20 in 10.0 mi West 3.5 mph - N/A   Clear
5:53 PM 45.0 °F - 28.9 °F 53% 30.22 in 10.0 mi Calm Calm - N/A   Clear
6:53 PM 41.0 °F - 34.0 °F 76% 30.24 in 10.0 mi Calm Calm - N/A   Clear
7:53 PM 37.9 °F - 34.0 °F 86% 30.26 in 10.0 mi Calm Calm - N/A   Clear
8:53 PM 36.0 °F - 33.1 °F 89% 30.26 in 10.0 mi Calm Calm - N/A   Clear
9:53 PM 33.1 °F - 30.9 °F 92% 30.26 in 10.0 mi Calm Calm - N/A   Clear
10:53 PM 34.0 °F - 30.9 °F 89% 30.28 in 10.0 mi Calm Calm - N/A   Clear
11:53 PM 36.0 °F 33.3 °F 30.9 °F 82% 30.29 in 10.0 mi WSW 3.5 mph - N/A   Clear